Printer-friendly version

IAU Minor Planet Center

Minor Planet Center

MPEC 2006-J37 : 2006 JV26

The following Minor Planet Electronic Circular may be linked-to from your own Web pages, but must not otherwise be redistributed electronically.


Read MPEC 2006-J36 Read MPEC 2006-J38


M.P.E.C. 2006-J37                                Issued 2006 May 8, 14:12 UT

     The Minor Planet Electronic Circulars contain information on unusual
         minor planets and routine data on comets.  They are published
   on behalf of Commission 20 of the International Astronomical Union by the
          Minor Planet Center, Smithsonian Astrophysical Observatory,
                          Cambridge, MA 02138, U.S.A.

                  Supported in part by the Brinson Foundation
                  Supported in part by the TABASGO Foundation
             Prepared using the Tamkin Foundation Computer Network

                              MPC@CFA.HARVARD.EDU
          URL http://cfa-www.harvard.edu/iau/mpc.html  ISSN 1523-6714

                                   2006 JV26

Observations:
     K06J26V* C2006 05 08.40413 15 02 30.58 +07 15 41.9          17.0 V EJ037703
     K06J26V  C2006 05 08.40505 15 02 28.21 +07 17 40.3          17.1 V EJ037703
     K06J26V  C2006 05 08.40602 15 02 25.72 +07 19 44.0          17.0 V EJ037703
     K06J26V  C2006 05 08.40689 15 02 23.49 +07 21 33.6          17.0 V EJ037703
     K06J26V  C2006 05 08.44142 15 00 51.58 +08 37 50.5          16.8 V EJ037703
     K06J26V  C2006 05 08.44163 15 00 50.94 +08 38 20.0          16.6 V EJ037703
     K06J26V  C2006 05 08.44185 15 00 50.36 +08 38 50.4          16.9 V EJ037703
     K06J26V  C2006 05 08.44210 15 00 49.68 +08 39 25.7          16.8 V EJ037703
     K06J26V  C2006 05 08.47435 14 59 18.06 +09 56 00.6          17.2 V EJ037703
     K06J26V  C2006 05 08.47455 14 59 17.44 +09 56 32.2          16.9 V EJ037703
     K06J26V  C2006 05 08.47477 14 59 16.80 +09 57 04.4          17.1 V EJ037703
     K06J26V  C2006 05 08.47501 14 59 16.15 +09 57 38.5          17.0 V EJ037703
     K06J26V  C2006 05 08.47573 14 59 13.99 +09 59 25.8          17.0 V EJ037703
     K06J26V  C2006 05 08.47597 14 59 13.30 +09 59 59.6          17.4 V EJ037703
     K06J26V  C2006 05 08.47619 14 59 12.62 +10 00 32.0          16.5 V EJ037703
     K06J26V  C2006 05 08.47666 14 59 11.29 +10 01 42.8          16.9 V EJ037703
     K06J26V  C2006 05 08.47687 14 59 10.64 +10 02 14.9          17.0 V EJ037703
     K06J26V  C2006 05 08.47710 14 59 09.96 +10 02 49.9          17.0 V EJ037703
     K06J26V  C2006 05 08.47734 14 59 09.24 +10 03 24.8          17.3 V EJ037703
     K06J26V  C2006 05 08.53760 14 57 00.82 +12 59 05.5          16.4 V EJ037E12
     K06J26V  C2006 05 08.53781 14 57 00.10 +12 59 42.9          16.8 V EJ037E12
     K06J26V  C2006 05 08.53803 14 56 59.35 +13 00 20.2          16.8 V EJ037E12
     K06J26V  C2006 05 08.53825 14 56 58.56 +13 00 58.2          16.8 V EJ037E12
     K06J26V  C2006 05 08.53849 14 56 57.66 +13 01 39.3          16.5 V EJ037E12
     K06J26V  C2006 05 08.54036 14 56 51.10 +13 07 02.8          16.6 V EJ037E12
     K06J26V  C2006 05 08.54058 14 56 50.24 +13 07 42.5          16.3 V EJ037E12
     K06J26V  C2006 05 08.54080 14 56 49.56 +13 08 20.1          17.0 V EJ037E12
     K06J26V  C2006 05 08.54104 14 56 48.69 +13 09 00.2          16.4 V EJ037E12
     K06J26V  C2006 05 08.54128 14 56 47.86 +13 09 42.8          16.4 V EJ037E12
     K06J26V  C2006 05 08.54208 14 56 45.02 +13 12 00.3          16.4 V EJ037E12
     K06J26V  C2006 05 08.54230 14 56 44.19 +13 12 40.8          16.8 V EJ037E12
     K06J26V  C2006 05 08.54254 14 56 43.29 +13 13 23.4          16.6 V EJ037E12
     K06J26V  C2006 05 08.54278 14 56 42.43 +13 14 05.2          16.0 V EJ037E12
     K06J26V  C2006 05 08.54303 14 56 41.60 +13 14 48.1          16.5 V EJ037E12
     K06J26V  C2006 05 08.54362 14 56 39.51 +13 16 29.9          16.7 V EJ037E12
     K06J26V  C2006 05 08.54406 14 56 37.93 +13 17 46.6          16.8 V EJ037E12
     K06J26V  C2006 05 08.54429 14 56 37.06 +13 18 28.2          16.8 V EJ037E12
     K06J26V  C2006 05 08.54453 14 56 36.24 +13 19 09.4          16.6 V EJ037E12
     K06J26V  C2006 05 08.54577 14 56 31.77 +13 22 47.8          16.3 V EJ037E12
     K06J26V  C2006 05 08.54600 14 56 30.94 +13 23 27.8          16.4 V EJ037E12
     K06J26V  C2006 05 08.54624 14 56 30.12 +13 24 09.5          16.2 V EJ037E12
     K06J26V  C2006 05 08.54646 14 56 29.25 +13 24 49.1          16.4 V EJ037E12
     K06J26V  C2006 05 08.54670 14 56 28.42 +13 25 30.3          16.4 V EJ037E12
     K06J26V  C2006 05 08.54788 14 56 24.10 +13 28 58.2          16.6 V EJ037E12
     K06J26V  C2006 05 08.54811 14 56 23.31 +13 29 38.6          16.6 V EJ037E12
     K06J26V  C2006 05 08.54835 14 56 22.45 +13 30 21.6          16.5 V EJ037E12
     K06J26V  C2006 05 08.54858 14 56 21.58 +13 31 03.9          16.5 V EJ037E12
     K06J26V  C2006 05 08.54884 14 56 20.72 +13 31 46.8          16.7 V EJ037E12
     K06J26V  C2006 05 08.55149 14 56 11.00 +13 39 37.0          16.6 V EJ037E12
     K06J26V  C2006 05 08.55173 14 56 10.17 +13 40 20.1          16.5 V EJ037E12
     K06J26V  C2006 05 08.55196 14 56 09.27 +13 41 02.6          16.7 V EJ037E12
     K06J26V  C2006 05 08.55221 14 56 08.41 +13 41 44.5          16.5 V EJ037E12

Observer details:
703 Catalina Sky Survey.  Observer E. J. Christensen.  Measurers E. C. Beshore,
    E. J. Christensen, G. J. Garradd, A. R. Gibbs, A. D. Grauer, R. E. Hill,
    R. A. Kowalski, S. M. Larson, R. H. McNaught.  0.68-m Schmidt + CCD.
E12 Siding Spring Survey.  Observer R. H. McNaught.  Measurers E. C. Beshore,
    E. J. Christensen, G. J. Garradd, A. R. Gibbs, A. D. Grauer, R. E. Hill,
    R. A. Kowalski, S. M. Larson, R. H. McNaught.  0.5-m Uppsala Schmidt + CCD.

Orbital elements:
2006 JV26                                                Earth MOID = 0.0057 AU
Epoch 2006 Mar. 6.0 TT = JDT 2453800.5                  MPC
M 321.43827              (2000.0)            P               Q
n   0.35165055     Peri.  114.75681     +0.92623561     +0.37418009
a   1.9879030      Node   223.30875     -0.36538074     +0.86151672
e   0.7934375      Incl.    3.80949     -0.09265266     +0.34318829
P   2.80           H   25.2           G   0.15           U   7
Residuals in seconds of arc
060508 703  0.2+  0.2-    060508 703  0.1-  0.9+    060508 E12  0.1+  0.4+
060508 703  0.1+  1.1+    060508 E12  0.2+  0.6-    060508 E12  0.7+  0.3-
060508 703  0.2+  1.1+    060508 E12  0.5+  0.6+    060508 E12  0.4+  0.7+
060508 703  0.3+  0.4-    060508 E12  0.8+  0.0     060508 E12  0.4+  0.3+
060508 703  1.1+  1.6-    060508 E12  0.6+  0.0     060508 E12  1.0+  0.2-
060508 703  0.2+  1.0-    060508 E12  0.2-  0.3-    060508 E12  0.1-  0.8+
060508 703  0.6+  0.9-    060508 E12  0.5+  0.4-    060508 E12  0.5+  0.2-
060508 703  0.7+  0.0     060508 E12  0.6-  1.1+    060508 E12  0.3-  0.2-
060508 703  0.5+  0.8-    060508 E12  0.8+  0.6+    060508 E12  0.3+  0.4-
060508 703  0.0   1.3+    060508 E12  0.6+  1.0-    060508 E12  0.4+  0.3+
060508 703  0.1+  1.0+    060508 E12  0.9+  0.1-    060508 E12  0.1-  1.9+
060508 703  0.8+  0.3-    060508 E12  1.0+  1.7-    060508 E12  1.1+  1.1-
060508 703  0.2+  0.5+    060508 E12  0.3+  0.4+    060508 E12  0.2+  0.8-
060508 703  0.4+  1.2-    060508 E12  0.3-  1.2+    060508 E12  0.9+  0.3-
060508 703  0.1-  1.3-    060508 E12  0.4-  1.2+    060508 E12  0.0   1.2+
060508 703  0.6+  0.2-    060508 E12  0.5+  0.5+    060508 E12  0.9+  1.4-
060508 703  0.2+  0.8+    060508 E12  0.8+  0.7-
060508 703  0.1+  1.7+    060508 E12  0.7+  0.9-

Ephemeris:
2006 JV26                a,e,i = 1.99, 0.79, 4                   q = 0.4106
Date    TT    R. A. (2000) Decl.     Delta      r     Elong.  Phase     V
2006 05 05    15 29.85   -17 09.2    0.0633   1.071   169.8     9.6    20.0
2006 05 06    15 27.77   -15 21.2    0.0480   1.056   171.1     8.5    19.3
2006 05 07    15 23.82   -11 52.9    0.0329   1.041   171.5     8.2    18.4
2006 05 08    15 13.64   -02 35.7    0.0180   1.027   165.2    14.6    17.4
2006 05 09    13 53.79   +50 48.3    0.00661  1.012   110.3    69.4    16.8
2006 05 10    04 16.33   +46 19.3    0.0153   0.997    32.2   147.3    24.1
2006 05 11    03 53.59   +34 34.3    0.0299   0.982    19.3   160.1    28.5
2006 05 12    03 47.38   +30 33.3    0.0451   0.967    14.6   164.7    31.4
2006 05 13    03 44.47   +28 32.9    0.0604   0.951    11.9   167.4    33.6
2006 05 14    03 42.77   +27 20.7    0.0757   0.936    10.0   169.2
2006 05 15    03 41.65   +26 32.5    0.0912   0.921     8.5   170.6

Timothy B. Spahr             (C) Copyright 2006 MPC           M.P.E.C. 2006-J37

Read MPEC 2006-J36 Read MPEC 2006-J38


Our Web policy. Index to the CBAT/MPC/ICQ pages.


Valid HTML 4.01!